CST,Max TemperatureF,Mean TemperatureF,Min TemperatureF,Max Dew PointF,MeanDew PointF,Min DewpointF,Max Humidity, Mean Humidity, Min Humidity, Max Sea Level PressureIn, Mean Sea Level PressureIn, Min Sea Level PressureIn, Max VisibilityMiles, Mean VisibilityMiles, Min VisibilityMiles, Max Wind SpeedMPH, Mean Wind SpeedMPH, Max Gust SpeedMPH,PrecipitationIn, CloudCover, Events, WindDirDegrees
2012-11-1,64,46,28,39,32,25,85,59,33,30.06,29.99,29.91,10,10,7,12,3,16,0.00,1,,223
2012-11-2,62,50,38,41,36,32,89,61,32,30.07,30.00,29.89,10,10,9,14,6,16,0.00,0,,31
2012-11-3,65,53,40,45,38,34,82,65,48,30.15,30.03,29.96,10,10,9,23,9,29,0.00,1,,43
2012-11-4,55,46,37,38,35,33,92,68,43,30.25,30.19,30.15,10,8,5,10,5,16,0.00,3,,22
2012-11-5,48,43,38,41,38,34,92,79,65,30.17,30.10,30.06,10,8,6,14,5,17,T,8,Rain,77
2012-11-6,49,44,38,43,40,37,89,83,76,30.08,30.02,29.95,10,8,4,10,5,14,T,7,Rain,283
2012-11-7,51,42,32,42,38,31,100,81,61,30.20,30.06,29.95,10,10,8,21,7,26,0.01,6,,310
2012-11-8,56,43,29,40,33,28,100,76,51,30.28,30.21,30.14,10,5,0,12,4,14,0.00,1,Fog,179
2012-11-9,71,54,37,53,44,34,86,67,48,30.17,30.11,30.04,10,10,7,22,10,30,0.00,0,,185
2012-11-10,72,62,52,55,48,42,77,65,52,30.16,30.10,30.05,10,10,10,24,13,31,0.00,1,,187
2012-11-11,72,62,51,61,52,48,96,75,53,30.07,30.00,29.89,10,7,2,30,16,39,0.86,7,Rain,212
2012-11-12,51,41,31,50,34,22,96,66,36,30.48,30.26,30.04,10,9,2,22,8,28,0.37,4,Rain,311
2012-11-13,50,39,27,32,27,21,100,66,32,30.56,30.49,30.45,10,10,10,10,3,14,0.00,0,,42
2012-11-14,49,39,28,30,28,26,92,67,42,30.49,30.43,30.37,10,10,10,10,3,14,0.00,0,,12
2012-11-15,54,40,26,33,28,25,100,68,35,30.43,30.36,30.33,10,8,0,7,2,9,0.00,1,Fog,28
2012-11-16,58,43,28,35,29,26,92,61,30,30.47,30.43,30.39,10,9,4,8,2,12,0.00,0,,39
2012-11-17,60,44,28,37,31,25,92,63,33,30.52,30.45,30.40,10,9,5,8,2,14,0.00,0,,50
2012-11-18,61,44,27,39,33,27,92,64,36,30.43,30.37,30.33,10,9,4,8,3,13,0.00,0,,146
2012-11-19,62,48,33,44,39,32,96,69,42,30.32,30.25,30.15,10,9,5,12,3,14,0.00,4,,178
2012-11-20,67,55,43,50,45,41,89,71,52,30.18,30.12,30.04,10,9,5,12,2,14,0.00,2,,258
2012-11-21,65,51,36,48,42,36,100,76,52,30.29,30.23,30.17,10,4,0,8,2,9,0.00,0,Fog,251
2012-11-22,63,49,34,50,42,34,100,80,60,30.19,30.15,30.06,10,4,0,15,7,22,T,1,Fog-Rain-Snow,184
2012-11-23,56,45,33,52,33,19,93,70,46,30.35,30.24,30.09,10,10,8,25,11,32,T,2,,311
2012-11-24,40,31,21,24,20,16,84,64,44,30.38,30.28,30.13,10,10,10,14,5,20,0.00,0,,279
2012-11-25,55,43,30,35,30,24,89,66,43,30.11,30.03,29.96,10,10,10,14,7,20,0.00,0,,199
2012-11-26,52,42,31,40,33,28,100,77,54,30.32,30.14,30.05,10,10,6,22,7,30,0.08,5,Rain,30
2012-11-27,42,33,23,27,25,21,92,73,53,30.43,30.38,30.33,10,10,5,18,7,24,0.00,0,,356
2012-11-28,50,36,22,31,26,20,96,69,42,30.48,30.42,30.37,10,8,5,8,1,9,0.00,0,,195
2012-11-29,54,40,26,36,30,24,92,69,46,30.36,30.29,30.21,10,9,7,18,5,23,0.00,0,,176
2012-11-30,60,48,35,48,41,27,83,68,53,30.24,30.18,30.13,10,10,9,14,8,18,0.00,3,,184